Location: Newark
(42.8270°N, 8.3618°W)
Time: 05:07:58
(UTC+00:00)

Hubble Space Telescope - Visible Passes

Search period start: 23 September 2020 00:00
Search period end: 03 October 2020 00:00
Orbit: 536 x 540 km, 28.5° (Epoch: 22 September)

Date Brightness Start Highest point End Pass type
(mag) Time Alt. Az. Time Alt. Az. Time Alt. Az.
27 Sep 3.3 05:58:54 10° S 05:59:42 10° S 06:00:30 10° SSE visible
28 Sep 3.2 05:47:48 10° SSW 05:48:49 11° S 05:49:51 10° SSE visible
29 Sep 3.2 05:36:54 10° SSW 05:37:57 11° S 05:39:01 10° SSE visible
30 Sep 3.2 05:26:08 10° SSW 05:27:05 11° S 05:28:01 10° S visible
01 Oct 3.2 05:15:39 10° SSW 05:16:12 10° S 05:16:44 10° S visible
